STARLINK-34438, 65876

Orbit data source: Space-Track

STARLINK-34438, 65876 is a payload satellite owned by SpaceX/Seattle (US) in LEO that was launched on Fri, 03 Oct 2025 UTC via an FALCON 9 launch vehicle from the Air Force Western Test Range (AFWTR). Payload-class satellites include a variety of spacecraft equipped with specific instruments for various scientific and technological missions. These include communications satellites like Starlink; space stations such as the ISS; scientific satellites like the Hubble; Earth observation satellites from companies like Planet Labs, Umbra, and HawkEye 360; GPS; miniature CubeSats for education and research; and military/defense satellites.

Loading next visibility...
Identifier
65876, 2025-223Y
Orbit
LEO
Country
Flag of USUS
Related business
Manufacturer
SpaceX/Seattle
Mission
Operational spacecraft
Bus & Motor
STARLINK V2MO, Unknown motor
Mass
575 kg wet, ~530 kg dry
Launch date (UTC)
2025-10-03 (2 weeks ago)
Launch vehicle
FALCON 9
Launch site
Air Force Western Test Range (AFWTR)
Object type
Payload
Rocket body
Debris
Shape & HBR
Unknown
Radar Cross Section
RCS unknown

Expand to show TLE details & history
Last TLE update: 6 hours ago

TLE from 6 hours ago
0 STARLINK-34438
1 65876U 25223Y   25291.20581177 -.00806446  00000-0 -74113-2 0  9994
2 65876  53.1585 240.0504 0001113 139.0396 221.0706 15.69431188  2335
Epoch: 2025-10-18T04:56Z
TLE epoch observation values (Epoch: 2025-10-18T04:56:22.136Z)
Latitude
-0.00001°
Longitude
139.018°
Altitude
362.005 km
Speed
7.693 km/s
True Right ascension
16h 00m 12s
True Declination
0° 00' 00"
Sunlit
Object was in daylight at epoch
Visualization orbit readout
Latitude
Unknown
Longitude
Unknown
Altitude
Unknown
Speed
Unknown
Apparent Right ascension
Unknown
Apparent Declination
Unknown
Sunlit
N/A
Visualization observer readout
Local Sidereal Time
05:51:00
Azimuth
Unknown
Elevation
Unknown
Doppler factor
Unknown
Orbital elements
Apogee altitude
361.536 km
Perigee altitude
360.036 km
Semi-major axis
6,738.923 km
Eccentricity
0.00011
Inclination
53.1585°
RAAN
240.0504°
Arg. of periapsis
139.0396°
True anomaly
221.06222°
Mean anomaly
221.0706°
Eccentric anomaly
221.06641°
Mean motion
3.92335 °/min
Orbital period
91.76 mins
BSTAR
-0.0074113
Loading maneuver chart data...
Computing Atmospheric mass density...
Loading historical data...
Loading historical data...
Loading historical data...
Loading historical data...
Loading historical data...
Loading historical data...
Loading historical data...

Documentation

Showing up to 5 results
|